Find Starlink 35115

NORAD ID: 65665 Int'l Des: 2025-211 Owner: SPXS Country: US Constellation: starlink operational
LEOCIRCULARRETROGRADESSO

現在のビュー

3D地球を読み込み中...

About Starlink 35115

Starlink 35115 (NORAD 65665) is a starlink constellation satellite (v2 mini) launched Sep 19, 2025 by SPXS of US. It operates in LEO, CIRCULAR, RETROGRADE, SSO orbit with a mass of 575.00 kg.

次回通過

Passes for default location (London). Set your location on the main map for personalized predictions.

高度履歴

Loading altitude history...

軌道要素

1 65665U 25211P 26263.05894014 .00012135 00000-0 37740-3 0 9995
2 65665 97.2833 303.2665 0001949 73.5291 286.6166 15.33462257 56450
Epoch: Sep 20, 2026 • Age: 16 hours

現在のステータス

高度 476.7 km
遠地点 / 近地点 N/A
速度 7.63 km/s
衛星直下点 73.02°N, 18.72°E
打ち上げ日 Sep 19, 2025
運用期間 1 year
タイプ internet

技術仕様

分類 Payload
質量 575.00 kg
乾燥質量 530.00 kg
長さ 0.30 m
スパン 29.00 m
形状 ? Box + pan
製造者 SPXS
バスタイプ Starlink V2MO
フェーズステータス In Orbit
所有者/国 SPXS/US

Most Searched